When you browse on this site, cookies collect data to enhance your experience and personalize the content and advertising you see.
Visit our Privacy Policy to learn more. By continuing to use the site, you agree to this use of cookies and data.

Hourly Weather Paratebueno

Today, 15 July, Wednesday

Time Temperature Precipitation Wind Pressure Humidity
00:00 +24°C° 0.6 mm 1 mps 739 mmHg 90%
01:00 +23°C° 0.6 mm 1 mps 739 mmHg 90%
02:00 +23°C° 1 mm 1 mps 739 mmHg 90%
03:00 +23°C° 1 mm 1 mps 738 mmHg 91%
04:00 +23°C° 1 mm 1 mps 738 mmHg 92%
05:00 +23°C° 1.2 mm 1 mps 738 mmHg 93%
06:00 +23°C° 1.2 mm 1 mps 739 mmHg 94%
07:00 +23°C° 1.2 mm 1 mps 739 mmHg 95%
08:00 +23°C° 1.6 mm 1 mps 739 mmHg 95%
09:00 +23°C° 1.6 mm 1 mps 739 mmHg 96%
10:00 +23°C° 1.6 mm 1 mps 739 mmHg 97%
11:00 +25°C° 0.2 mm 1 mps 739 mmHg 90%
12:00 +27°C° 0.2 mm 1 mps 738 mmHg 84%
13:00 +27°C° 0.2 mm 0 mps 737 mmHg 77%
14:00 +29°C° 0.2 mm 1 mps 737 mmHg 79%
15:00 +29°C° 0.2 mm 1 mps 736 mmHg 80%
16:00 +29°C° 0.2 mm 1 mps 735 mmHg 82%
17:00 +28°C° 0.3 mm 1 mps 736 mmHg 85%
18:00 +26°C° 0.3 mm 1 mps 737 mmHg 88%
19:00 +23°C° 0.3 mm 0 mps 737 mmHg 92%
20:00 +25°C° 0 mm 1 mps 738 mmHg 92%
21:00 +24°C° 0 mm 1 mps 738 mmHg 92%
22:00 +24°C° 0 mm 1 mps 738 mmHg 92%
23:00 +23°C° 0.1 mm 1 mps 738 mmHg 92%

Tomorrow, 16 July, Thursday

Time Temperature Precipitation Wind Pressure Humidity
00:00 +23°C° 0.1 mm 1 mps 738 mmHg 91%
01:00 +23°C° 0.1 mm 1 mps 738 mmHg 91%
02:00 +23°C° 0.1 mm 1 mps 738 mmHg 90%
03:00 +23°C° 0.1 mm 1 mps 738 mmHg 89%
04:00 +23°C° 0.1 mm 1 mps 737 mmHg 88%
05:00 +23°C° 0 mm 1 mps 738 mmHg 86%
06:00 +24°C° 0 mm 1 mps 738 mmHg 85%
07:00 +22°C° 0 mm 0 mps 739 mmHg 83%
08:00 +23°C° 0 mm 0 mps 739 mmHg 82%
09:00 +24°C° 0 mm 0 mps 739 mmHg 81%
10:00 +25°C° 0 mm 0 mps 739 mmHg 80%
11:00 +29°C° 0.2 mm 1 mps 738 mmHg 75%
12:00 +30°C° 0.2 mm 1 mps 737 mmHg 71%
13:00 +32°C° 0.2 mm 1 mps 737 mmHg 66%
14:00 +31°C° 0.8 mm 1 mps 736 mmHg 72%
15:00 +30°C° 0.8 mm 1 mps 736 mmHg 78%
16:00 +29°C° 0.8 mm 2 mps 735 mmHg 84%
17:00 +28°C° 0.6 mm 1 mps 736 mmHg 87%
18:00 +26°C° 0.6 mm 1 mps 736 mmHg 90%
19:00 +25°C° 0.6 mm 1 mps 737 mmHg 93%
20:00 +25°C° 0.2 mm 1 mps 737 mmHg 93%
21:00 +25°C° 0.2 mm 1 mps 738 mmHg 93%
22:00 +24°C° 0.2 mm 1 mps 738 mmHg 92%
23:00 +24°C° 0.1 mm 1 mps 738 mmHg 92%

Day after tomorrow, 17 July, Friday

Time Temperature Precipitation Wind Pressure Humidity
00:00 +24°C° 0.1 mm 1 mps 738 mmHg 92%
01:00 +24°C° 0.1 mm 1 mps 738 mmHg 91%
02:00 +22°C° 0.1 mm 0 mps 738 mmHg 91%
03:00 +22°C° 0.1 mm 0 mps 737 mmHg 91%
04:00 +22°C° 0.1 mm 0 mps 737 mmHg 90%
05:00 +22°C° 0.3 mm 0 mps 738 mmHg 90%
06:00 +22°C° 0.3 mm 0 mps 738 mmHg 90%
07:00 +23°C° 0.3 mm 0 mps 738 mmHg 90%
08:00 +24°C° 0.2 mm 0 mps 739 mmHg 85%
09:00 +26°C° 0.2 mm 0 mps 739 mmHg 81%
10:00 +28°C° 0.2 mm 0 mps 739 mmHg 76%
11:00 +30°C° 0.5 mm 1 mps 738 mmHg 74%
12:00 +30°C° 0.5 mm 1 mps 738 mmHg 72%
13:00 +31°C° 0.5 mm 1 mps 737 mmHg 71%
14:00 +31°C° 0.6 mm 1 mps 736 mmHg 74%
15:00 +30°C° 0.6 mm 1 mps 736 mmHg 77%
16:00 +30°C° 0.6 mm 1 mps 735 mmHg 81%
17:00 +28°C° 0.6 mm 1 mps 736 mmHg 85%
18:00 +27°C° 0.6 mm 1 mps 737 mmHg 89%
19:00 +25°C° 0.6 mm 1 mps 737 mmHg 93%
20:00 +25°C° 0.4 mm 1 mps 738 mmHg 93%
21:00 +25°C° 0.4 mm 1 mps 738 mmHg 93%
22:00 +25°C° 0.4 mm 1 mps 739 mmHg 93%
23:00 +25°C° 0.1 mm 1 mps 738 mmHg 93%

18 July, Saturday

Time Temperature Precipitation Wind Pressure Humidity
00:00 +24°C° 0.1 mm 1 mps 738 mmHg 92%
01:00 +24°C° 0.1 mm 1 mps 738 mmHg 92%
02:00 +24°C° 0 mm 1 mps 737 mmHg 91%
03:00 +22°C° 0 mm 0 mps 737 mmHg 91%
04:00 +22°C° 0 mm 0 mps 737 mmHg 91%
05:00 +22°C° 0.1 mm 0 mps 738 mmHg 91%
06:00 +24°C° 0.1 mm 1 mps 738 mmHg 91%
07:00 +24°C° 0.1 mm 1 mps 738 mmHg 92%
08:00 +25°C° 0.1 mm 1 mps 739 mmHg 90%
09:00 +24°C° 0.1 mm 0 mps 739 mmHg 88%
10:00 +25°C° 0.1 mm 0 mps 739 mmHg 87%
11:00 +28°C° 0.2 mm 1 mps 738 mmHg 82%
12:00 +29°C° 0.2 mm 1 mps 738 mmHg 77%
13:00 +30°C° 0.2 mm 1 mps 737 mmHg 73%
14:00 +30°C° 0.1 mm 1 mps 736 mmHg 72%
15:00 +30°C° 0.1 mm 1 mps 736 mmHg 71%
16:00 +31°C° 0.1 mm 1 mps 735 mmHg 70%
17:00 +29°C° 0.2 mm 1 mps 736 mmHg 76%
18:00 +27°C° 0.2 mm 1 mps 736 mmHg 82%
19:00 +26°C° 0.2 mm 1 mps 737 mmHg 88%
20:00 +25°C° 0.5 mm 1 mps 737 mmHg 88%
21:00 +25°C° 0.5 mm 1 mps 738 mmHg 89%
22:00 +25°C° 0.5 mm 1 mps 739 mmHg 89%
23:00 +25°C° 0 mm 1 mps 738 mmHg 89%

19 July, Sunday

Time Temperature Precipitation Wind Pressure Humidity
00:00 +25°C° 0 mm 1 mps 738 mmHg 88%
01:00 +24°C° 0 mm 1 mps 737 mmHg 88%
02:00 +22°C° 0 mm 0 mps 737 mmHg 87%
03:00 +22°C° 0 mm 0 mps 737 mmHg 87%
04:00 +22°C° 0 mm 0 mps 737 mmHg 86%
05:00 +22°C° 0 mm 0 mps 737 mmHg 86%
06:00 +23°C° 0 mm 0 mps 738 mmHg 86%
07:00 +23°C° 0 mm 0 mps 738 mmHg 86%
08:00 +24°C° 0 mm 0 mps 738 mmHg 83%
09:00 +25°C° 0 mm 0 mps 738 mmHg 80%
10:00 +26°C° 0 mm 0 mps 738 mmHg 77%
11:00 +30°C° 0.1 mm 1 mps 738 mmHg 73%
12:00 +31°C° 0.1 mm 1 mps 737 mmHg 68%
13:00 +32°C° 0.1 mm 1 mps 736 mmHg 64%
14:00 +31°C° 0.4 mm 1 mps 735 mmHg 69%
15:00 +31°C° 0.4 mm 1 mps 735 mmHg 74%
16:00 +30°C° 0.4 mm 1 mps 734 mmHg 80%
17:00 +29°C° 0.6 mm 1 mps 735 mmHg 83%
18:00 +27°C° 0.6 mm 1 mps 736 mmHg 87%
19:00 +25°C° 0.6 mm 1 mps 736 mmHg 91%
20:00 +25°C° 0.2 mm 1 mps 737 mmHg 91%
21:00 +25°C° 0.2 mm 1 mps 737 mmHg 92%
22:00 +24°C° 0.2 mm 1 mps 738 mmHg 92%
23:00 +24°C° 0.8 mm 1 mps 737 mmHg 92%

20 July, Monday

Time Temperature Precipitation Wind Pressure Humidity
00:00 +24°C° 0.8 mm 1 mps 737 mmHg 92%
01:00 +22°C° 0.8 mm 0 mps 737 mmHg 93%
02:00 +24°C° 0.7 mm 1 mps 737 mmHg 93%
03:00 +24°C° 0.7 mm 1 mps 737 mmHg 93%
04:00 +24°C° 0.7 mm 1 mps 737 mmHg 94%
05:00 +24°C° 0.3 mm 1 mps 737 mmHg 94%
06:00 +22°C° 0.3 mm 0 mps 737 mmHg 93%
07:00 +22°C° 0.3 mm 0 mps 738 mmHg 93%
08:00 +22°C° 0.1 mm 0 mps 738 mmHg 92%
09:00 +23°C° 0.1 mm 0 mps 739 mmHg 91%
10:00 +24°C° 0.1 mm 0 mps 739 mmHg 90%
11:00 +24°C° 0.1 mm 0 mps 738 mmHg 90%
12:00 +26°C° 0.1 mm 1 mps 738 mmHg 89%
13:00 +26°C° 0.1 mm 1 mps 737 mmHg 88%
14:00 +27°C° 0.1 mm 1 mps 736 mmHg 87%
15:00 +25°C° 0.1 mm 0 mps 736 mmHg 85%
16:00 +25°C° 0.1 mm 0 mps 735 mmHg 83%
17:00 +25°C° 0 mm 0 mps 735 mmHg 85%
18:00 +24°C° 0 mm 0 mps 736 mmHg 86%
19:00 +23°C° 0 mm 0 mps 736 mmHg 88%
20:00 +23°C° 0 mm 0 mps 737 mmHg 86%
21:00 +23°C° 0 mm 0 mps 737 mmHg 85%
22:00 +23°C° 0 mm 0 mps 738 mmHg 83%
23:00 +23°C° 0.3 mm 0 mps 738 mmHg 85%
Show more